Location: Scheller
(38.1864°N, 89.0951°W)
Time: 00:11:59
(UTC+00:00)

Daily predictions for brighter satellites

Satellite Brightness Start Highest point End
(mag) Time Altitude Azimuth Time Altitude Azimuth Time Altitude Azimuth
Cosmos 1980 Rocket 2.4 00:02:17 10° S 00:07:45 54° ESE 00:13:17 10° NNE
Cosmos 44 4.2 00:04:28 10° NNW 00:09:31 37° NE 00:14:27 10° ESE
ERS-2 3.0 00:07:10 10° NE 00:10:24 29° E 00:13:36 10° SSE
Cosmos 1452 Rocket 3.9 00:06:51 10° SSW 00:12:04 70° WNW 00:17:19 10° NNE
Timation 1 Rocket 4.4 00:07:56 10° NNW 00:13:50 58° ENE 00:19:41 10° SE
RESURS DK-1 2.5 00:10:08 10° NNW 00:14:17 80° WSW 00:18:23 10° SSE
Cosmos 2322 Rocket 3.8 00:15:52 10° ESE 00:17:55 12° E 00:19:58 10° ENE
SAR-Lupe-4 4.2 00:15:21 10° NNE 00:18:36 33° E 00:21:51 10° SSE
Meteor 2-17 Rocket 4.4 00:13:58 10° S 00:20:02 71° E 00:26:07 10° NNE
FALCON 9 DEB 3.8 00:17:19 10° WSW 00:20:23 47° NW 00:23:29 10° NE
Cosmos 1867 3.6 00:15:47 10° SSW 00:21:09 67° ESE 00:26:34 10° NE
Atlas Centaur 2 4.4 00:16:46 10° WSW 00:21:58 23° SSW 00:26:25 10° SSE
USA 305 3.3 00:17:59 10° WSW 00:22:13 65° NW 00:26:29 10° NE
Okean O Rocket 3.7 00:19:58 10° SSW 00:23:53 33° W 00:27:50 10° NNW
Cosmos 2082 3.6 00:19:14 10° NNW 00:24:51 70° ENE 00:30:26 10° SSE
PSLV R/B 3.9 00:22:30 10° NNE 00:26:34 60° E 00:30:35 10° S
Cosmos 1741 Rocket 4.0 00:21:42 10° NNW 00:27:01 68° ENE 00:32:17 10° SSE
CZ-4 R/B 1.3 00:24:39 10° SSE 00:28:26 59° ENE 00:32:14 10° N
Cosmos 1110 Rocket 4.0 00:23:35 10° S 00:28:52 76° ESE 00:34:12 10° NNE
Cosmos 724 4.5 00:23:36 10° SSW 00:29:36 83° WNW 00:35:48 10° NNE
USA 307 3.4 00:25:57 10° WSW 00:30:10 59° NW 00:34:24 10° NE
ERBS 3.8 00:28:45 10° S 00:31:11 19° ESE 00:32:34 15° E
Cosmos 1697 Rocket 3.8 00:26:32 10° SW 00:31:59 48° WNW 00:37:27 10° NNE
SL-24 R/B - RUBIN 2 4.2 00:28:26 10° NW 00:34:06 76° WSW 00:39:00 10° SSE
IRS-1C Rocket 4.1 00:28:52 10° SSE 00:34:07 86° ENE 00:39:25 10° NNW
USA 306 3.7 00:32:17 10° WSW 00:36:27 50° NW 00:40:37 10° NE
SAR-Lupe-1 4.0 00:33:08 10° NNE 00:36:43 61° ESE 00:40:14 10° S
SL-16 R/B 3.2 00:32:41 10° SSE 00:37:10 25° ESE 00:41:41 10° NE
DMSP B5D1-3 4.5 00:35:02 10° NNE 00:40:10 67° ESE 00:45:17 10° S
USA 308 3.7 00:36:19 10° WSW 00:40:29 48° NW 00:44:38 10° NE
HJ-1C 3.5 00:42:50 10° SSE 00:46:04 49° ENE 00:49:18 10° N
Cosmos 1805 Rocket 3.7 00:42:10 10° S 00:46:30 79° W 00:50:54 10° N
SeaSat 1 2.9 00:41:51 10° NNE 00:46:44 63° WNW 00:51:35 10° SW
Cosmos 1689 Rocket 2.1 00:45:03 10° N 00:47:54 76° WNW 00:50:45 10° SSW
Abrixas rocket 2.2 00:48:03 10° SSW 00:50:24 36° SE 00:50:44 34° ESE
Cosmos 1271 Rocket 3.2 00:50:36 10° N 00:54:04 35° ENE 00:56:23 18° SE
Cosmos 1602 4.3 00:52:57 10° SSE 00:56:28 35° E 01:00:01 10° NNE
Cosmos 2263 Rocket 2.6 00:52:45 10° N 00:57:58 39° ENE 01:01:17 20° ESE
USA 234 3.8 00:53:04 10° NE 00:59:28 59° NW 01:05:51 10° WSW
Cosmos 1461 3.4 00:55:32 10° S 01:00:01 48° ESE 01:03:13 19° NE
Cosmos 2154 Rocket 4.2 00:54:28 10° SSE 01:00:21 45° E 01:06:13 10° NNE
Cosmos 2228 Rocket 4.0 00:56:28 10° NNW 01:00:52 51° W 01:05:12 10° SSW
GP-B 4.1 01:02:28 26° ENE 01:02:28 26° ENE 01:05:39 10° NNE
SL-08 RB Rocket 3.7 00:57:37 10° SSE 01:01:59 57° ENE 01:06:26 10° N
Nadezhda 3 Rocket 4.4 00:58:44 10° N 01:04:39 39° ENE 01:10:33 10° SE
IRIS 4.3 01:02:14 10° W 01:04:50 41° N 01:05:03 39° N
Cosmos 2227 Rocket 4.5 01:01:21 10° NW 01:05:56 26° WSW 01:10:31 10° SSW
H-2A R/B 2.7 01:00:51 10° S 01:06:09 61° W 01:11:34 10° NNW
Cosmos 1666 Rocket 3.4 01:04:06 10° S 01:08:27 81° E 01:12:48 10° N
Cosmos 2074 Rocket 3.9 01:02:38 10° S 01:08:56 85° E 01:15:14 10° N
ARGOS 3.2 01:05:05 10° SSE 01:10:29 82° WSW 01:15:57 10° NNW
Cosmos 1610 Rocket 4.5 01:05:12 10° SSE 01:11:09 55° E 01:17:12 10° NNE
Cosmos 1862 Rocket 4.0 01:09:47 10° N 01:14:02 40° ENE 01:14:35 39° E
Meteor 1-27 Rocket 4.4 01:12:27 10° NNW 01:17:49 54° W 01:23:11 10° S
Helios 1A Rocket 3.3 01:15:28 10° S 01:19:31 64° WSW 01:23:34 10° NNW
MetOp-A 4.3 01:17:36 24° SE 01:20:38 50° ENE 01:25:48 10° N
Meteor 1-25 Rocket 4.2 01:14:51 10° S 01:20:40 90° ENE 01:26:27 10° N
Cosmos 2184 Rocket 4.1 01:15:46 10° S 01:21:54 79° W 01:28:07 10° N
YAOGAN 1 4.2 01:18:48 10° SSW 01:22:46 36° W 01:26:45 10° NNW
SL-4 R/B 4.2 01:22:54 10° NW 01:24:21 12° NNW 01:25:38 10° N
CSL-04 Debris 4.4 01:19:12 10° S 01:24:34 71° WSW 01:30:01 10° NNW
Okean-O 4.2 01:21:43 10° SSW 01:25:46 35° W 01:29:52 10° NNW
Cosmos 1932 4.4 01:19:17 10° SSW 01:25:46 79° ESE 01:31:52 12° NNE
Cosmos 1295 Rocket 4.4 01:19:43 10° S 01:25:55 61° E 01:32:03 10° NNE
Meteor 1-18 Rocket 4.4 01:20:09 10° N 01:25:55 51° ENE 01:28:27 31° SE
CZ-2C R/B 3.0 01:20:46 10° N 01:26:16 68° WNW 01:31:37 10° SSW
COSMOS 2455 2.9 01:21:27 10° NNW 01:27:29 79° WSW 01:32:50 13° SSE
Cosmos 1437 3.4 01:25:18 10° NNW 01:28:06 46° W 01:28:32 42° SW
CSL-04 Rocket 4.1 01:26:05 10° S 01:31:35 66° WSW 01:37:07 10° NNW
Lacrosse 5 rocket 2.1 01:27:56 10° NW 01:32:08 49° SW 01:33:43 31° S
Cosmos 2360 Rocket 4.0 01:31:07 10° SSE 01:32:13 15° SSE 01:32:13 15° SSE
Meteor 2-12 Rocket 4.3 01:33:45 10° S 01:39:46 77° E 01:45:50 10° N
Cosmos 1992 Rocket 4.0 01:35:41 10° S 01:40:25 58° SE 01:40:25 58° SE
TSX-5 4.3 01:37:40 10° NW 01:41:38 50° WSW 01:42:07 46° SW
SME Rocket 4.2 01:34:06 10° NNE 01:42:51 72° ESE 01:48:26 10° S
Cosmos 2341 Rocket 4.0 01:39:18 10° SSE 01:45:27 54° E 01:51:34 10° NNE
Cosmos 962 Rocket 4.4 01:40:20 10° S 01:46:22 63° E 01:52:30 10° NNE
Cosmos 1633 Rocket 4.4 01:46:37 10° SSW 01:50:45 40° WNW 01:54:56 10° N
Cosmos 968 Rocket 3.6 01:54:51 10° NNW 01:59:27 67° N 01:59:27 67° N
Cosmos 2322 Rocket 2.2 01:55:34 10° SSW 02:01:10 79° WNW 02:03:06 42° NNE
SL-16 R/B 3.3 02:15:37 10° SW 02:20:58 42° WNW 02:25:36 14° N
Ariane Rocket 3.9 02:24:09 44° NW 02:24:09 44° NW 02:27:45 10° NNW
Cosmos 2263 Rocket 4.0 02:37:07 10° NW 02:41:38 26° WSW 02:43:04 23° SW
Cosmos 1980 Rocket 4.4 09:02:29 21° NE 09:02:40 21° NE 09:06:51 10° ESE
ALOS 4.0 09:39:32 10° NNE 09:42:44 30° ENE 09:42:44 30° ENE
ISS -0.4 10:02:06 11° NE 10:02:06 11° NE 10:02:18 10° NE
H-2A R/B 3.7 10:03:35 10° SE 10:07:31 34° ENE 10:11:24 10° N
Cosmos 2278 3.9 10:10:01 28° N 10:13:04 69° ENE 10:18:44 10° SSE
SeaSat 1 2.7 10:13:48 10° SE 10:18:39 66° ENE 10:20:53 32° N
Meteor 1-27 4.0 10:22:23 69° SSW 10:23:04 84° W 10:28:40 10° N
Meteor 2-15 4.3 10:24:04 55° SSW 10:25:24 74° W 10:31:34 10° N
ATLAS CENTAUR R/B 3.8 10:30:01 10° N 10:33:03 20° NE 10:36:13 10° E
Cosmos 1932 4.4 10:30:29 19° NNW 10:35:10 86° ENE 10:41:21 10° SSE
Cosmos 2082 Rocket 3.1 10:37:26 33° NW 10:37:26 33° NW 10:41:36 10° N
FENGYUN 3A 3.5 10:31:42 10° N 10:37:06 67° WNW 10:38:30 48° SW
Cosmos 1745 Rocket 4.5 10:32:25 10° N 10:38:38 61° E 10:44:51 10° SSE
Cosmos 1452 Rocket 4.5 10:44:07 30° SSW 10:44:07 30° SSW 10:46:59 10° S
SL-08 ROCKET BODY 4.4 10:36:42 10° N 10:42:48 89° E 10:48:58 10° S
Iridium 4 Rocket 3.5 10:43:04 54° W 10:43:04 54° W 10:47:50 10° N
COSMO-SKYMED 1 4.1 10:40:04 10° SE 10:44:04 37° ENE 10:48:04 10° N
NOSS 2-2 (C) 3.2 10:44:15 65° SE 10:44:24 66° ESE 10:47:55 10° NE
Meteor 1-4 Rocket 4.1 10:42:26 10° SSE 10:45:55 37° E 10:49:23 10° NNE
Cosmos 1980 Rocket 2.2 10:44:25 30° NW 10:47:03 57° WSW 10:52:34 10° S
Milstar 3 Cent rocket 4.0 10:45:53 12° S 10:48:10 16° SSE 10:51:15 10° ESE
Meteor 2-3 Rocket 3.9 10:43:43 10° NNW 10:49:09 47° W 10:54:37 10° SSW
SL-08 R/B 4.3 10:47:04 10° NNW 10:53:14 71° W 10:59:18 10° S
Meteor 1-31 Rocket 2.7 10:49:33 10° NNE 10:53:28 83° ESE 10:57:19 10° S
Cosmos 2322 Rocket 3.7 10:51:24 10° N 10:56:38 37° ENE 11:01:49 10° SE
ADEOS 3.4 10:53:08 10° NNE 10:58:23 82° WNW 11:03:36 10° SSW
Cosmos 1110 Rocket 3.9 10:53:09 10° NNW 10:58:26 74° WSW 11:03:37 10° S
METEOR-M 4.1 10:53:15 10° N 10:58:29 58° WNW 11:03:17 12° SSW
NOSS 2-2 (E) 3.0 11:00:09 56° WNW 11:00:11 56° NW 11:03:48 10° NNE
Cosmos 1461 3.4 11:05:10 37° WSW 11:05:10 37° WSW 11:09:00 10° S
Cosmos 1766 Rocket 4.4 11:01:48 10° NNW 11:07:10 30° SW 11:09:56 10° SSW
CZ-2C R/B 4.4 11:04:27 10° NNW 11:05:24 13° NW 11:05:24 13° NW
Meteor 2-2 Rocket 4.3 11:01:36 10° SSW 11:07:31 78° W 11:13:33 10° N
CZ-4B R/B 3.6 11:05:19 10° N 11:09:06 60° WNW 11:12:03 15° SSW
X-37B 2.3 11:12:44 20° NNW 11:13:45 24° N 11:16:25 10° ENE
SL-16 R/B 2.5 11:11:07 10° NNW 11:16:47 69° ENE 11:22:25 10° SSE
Lacrosse 5 4.5 11:17:32 10° N 11:18:03 10° NNE 11:18:33 10° NNE
Cosmos 2315 Rocket 4.2 11:11:54 10° S 11:18:06 76° E 11:24:19 10° N
Cosmos 1484 Rocket 4.5 11:16:33 10° NNW 11:17:53 17° NW 11:17:53 17° NW
ALOS 3.4 11:17:20 10° NNW 11:20:58 23° WNW 11:21:14 23° WNW
Cosmos 1408 Rocket 3.8 11:18:56 10° NNW 11:23:11 45° W 11:27:23 10° SSW
deb Chang Zheng 4 3.5 11:24:18 10° NNE 11:28:35 88° WNW 11:32:51 10° SSW
Cosmos 1269 Rocket 4.3 11:23:36 10° SW 11:28:40 47° WNW 11:33:46 10° N
Cosmos 883 Rocket 4.4 11:25:41 10° SSW 11:31:50 68° W 11:38:00 10° N
SKYMED 2 3.5 11:27:43 10° S 11:32:00 60° W 11:36:18 10° NNW
H-2A R/B 2.7 11:28:11 10° N 11:32:06 82° WNW 11:36:00 10° SSW
Cosmos 1500 Rocket 3.4 11:31:12 10° NNW 11:35:30 66° W 11:39:48 10° S
ISS -1.6 11:35:04 13° NW 11:36:15 14° NNW 11:38:12 10° NNE
Cosmos 1842 Rocket 4.3 11:32:30 10° SW 11:36:21 30° WNW 11:40:12 10° NNW
Cosmos 2221 3.3 11:33:30 10° SW 11:37:21 30° WNW 11:41:13 10° NNW
MOS 1 Rocket 3.2 11:33:29 10° S 11:37:38 52° W 11:41:52 10° NNW
BREEZE M DEB (TANK) 4.4 11:35:28 10° NNW 11:38:00 20° NNE 11:43:06 10° ENE
YAOGAN 6 2.6 11:36:24 10° NNE 11:39:58 82° ESE 11:43:28 10° S
CZ-3 R/B 3.8 11:30:14 10° SW 11:40:36 24° S 11:45:17 10° SE
Meteor PRIRODA 3.7 11:39:28 10° N 11:43:05 53° WNW 11:46:42 10° SSW
Sich 1 3.9 11:38:51 10° N 11:43:13 54° E 11:47:32 10° SSE
H-2A R/B 3.4 11:40:22 10° SW 11:43:31 19° W 11:46:37 10° NW
SJ-7 4.4 11:40:51 10° NNE 11:44:51 88° ESE 11:48:50 10° SSW
ASTRO E2 4.4 11:41:42 10° SW 11:45:01 26° S 11:48:22 10° ESE
NOSS 2-2 (D) 4.3 11:44:25 15° W 11:46:21 23° NW 11:49:20 10° N
USA 215 4.0 11:41:48 10° NE 11:48:12 55° SE 11:54:34 10° SSW
BREEZE-M DEB (TANK) 4.5 11:45:54 12° WNW 11:48:55 19° NNW 11:51:04 10° NNE
CZ-4B R/B 2.1 11:47:21 10° SSW 11:50:14 29° W 11:53:05 10° NW
SL-27 R/B 3.2 11:49:09 10° SW 11:52:19 32° WNW 11:55:33 10° N
SeaSat 1 4.0 11:53:51 10° SW 11:56:30 14° WSW 11:59:10 10° WNW
